Probability
0 0 0 0 0 0 1 0 1 4 9 15 20 25 30 31 30 30 32 34 36 37 38 40 40 38 35 34 34 35 33 30 28 25 22 20 19 18 17 16 16 16 18 18
0 0 0 0 0 1 1 1 2 5 11 16 22 27 30 30 28 28 29 31 34 35 37 39 39 37 35 37 38 36 32 30 30 27 23 21 20 20 19 17 16 16 17 17
1 0 1 1 2 1 1 2 5 9 13 17 21 25 29 29 27 25 26 29 32 35 38 40 40 38 36 37 38 33 28 29 31 29 26 24 22 22 22 19 16 14 14 15
1 1 2 2 2 2 2 4 8 11 12 14 17 22 26 27 25 23 24 28 32 35 37 40 41 39 35 34 32 28 25 26 28 28 27 25 24 24 23 20 15 12 12 13
1 2 2 1 2 3 3 5 8 9 9 11 14 18 22 24 22 20 21 25 29 30 32 36 39 37 32 28 27 25 23 23 23 24 24 24 24 24 21 18 15 13 12 12
0 1 1 1 2 3 3 5 8 7 6 9 11 14 19 21 19 18 20 21 22 24 28 32 35 34 30 26 25 24 21 19 20 21 21 22 23 22 18 15 14 13 12 11
0 0 1 2 4 6 7 8 9 8 8 10 11 12 14 15 15 16 17 18 19 21 25 30 32 32 29 28 27 24 20 18 20 21 20 20 22 22 18 16 14 12 11 11
1 1 3 5 6 10 14 13 11 10 10 11 11 10 9 10 11 12 13 14 17 19 23 27 30 30 28 27 27 24 21 20 22 22 20 20 22 21 19 17 15 12 11 11
3 3 4 5 7 11 14 13 11 11 10 11 11 9 9 10 11 13 14 14 16 17 20 24 26 25 25 24 24 23 23 23 24 24 23 21 20 18 16 15 14 12 11 10
4 3 2 3 6 8 10 9 9 8 9 11 11 10 11 12 13 15 16 16 16 16 17 19 19 20 21 20 21 22 23 24 24 23 21 19 16 13 12 10 9 10 10 9
6 6 4 3 5 7 7 7 6 6 8 11 11 11 12 14 15 16 16 15 15 15 15 14 15 15 14 14 16 19 20 21 20 18 15 13 11 8 6 5 5 6 8 9
10 10 9 7 6 7 7 7 5 5 8 10 9 9 10 12 15 16 14 13 13 14 14 12 11 9 7 8 10 13 15 16 14 11 9 8 7 5 3 2 3 3 5 5
11 11 11 9 7 7 7 6 4 5 8 8 6 6 7 10 12 13 12 10 10 12 13 12 9 6 4 4 6 8 10 9 8 7 6 6 6 5 4 2 2 2 2 2
9 9 10 9 7 5 4 3 3 5 7 7 5 4 5 8 9 10 9 7 7 8 10 10 8 5 3 4 5 5 5 5 4 4 5 6 7 6 5 4 2 1 1 1
6 7 7 6 5 3 1 1 1 3 5 5 4 4 5 7 8 8 7 6 5 6 7 8 6 4 3 3 3 4 3 3 3 3 4 6 7 6 5 4 2 1 0 0
4 4 3 3 3 2 1 0 0 1 2 3 4 4 5 6 7 8 7 6 6 7 7 7 6 3 1 1 1 3 4 3 3 3 4 5 6 5 4 3 1 0 0 0
3 2 1 1 2 2 2 1 0 0 1 3 4 4 3 3 5 7 7 6 6 8 8 8 6 3 1 0 1 3 4 4 4 4 5 5 5 5 4 2 1 0 0 0
2 1 0 0 1 1 2 1 1 1 2 3 4 4 2 1 2 4 5 5 4 6 7 6 4 2 1 0 1 3 4 4 4 5 4 5 5 4 3 2 1 0 0 0
1 0 0 0 0 0 1 2 2 3 4 4 3 4 4 2 1 3 4 4 3 4 4 3 1 1 1 1 1 2 3 3 4 4 4 4 4 3 2 2 1 0 0 0
0 0 0 0 0 0 1 3 4 6 6 5 4 5 5 4 3 3 3 4 4 5 5 2 0 0 0 0 0 1 3 3 3 3 3 3 2 1 1 1 0 0 0 0
0 0 0 0 0 0 1 3 5 6 6 4 4 5 6 6 5 4 3 4 6 8 6 2 0 0 0 0 0 1 2 2 2 1 1 1 0 0 0 0 0 0 0 1
0 0 0 0 0 0 1 1 3 4 3 2 2 3 4 5 5 4 4 5 7 6 4 1 0 0 0 0 0 0 1 1 1 0 0 0 0 0 0 0 0 0 0 1
0 1 1 1 1 1 0 0 1 2 3 2 1 2 3 4 3 2 4 5 5 3 1 0 0 0 0 0 0 0 0 0 0 0 0 0 0 0 0 0 0 0 0 1
1 2 3 3 3 2 1 0 1 2 2 2 2 2 2 2 1 1 3 3 2 1 0 0 0 0 0 0 0 0 0 0 0 0 0 0 0 0 0 0 0 0 0 0
0 1 2 3 3 3 2 0 0 1 1 1 1 1 1 1 0 1 2 2 1 0 0 0 0 0 0 0 0 0 0 0 0 0 0 0 0 0 0 0 0 0 0 0
0 0 0 1 3 3 1 0 0 0 0 0 0 0 0 0 1 2 3 2 1 0 0 0 0 0 0 0 0 0 0 0 0 0 0 0 0 0 0 0 0 0 0 0
0 0 0 1 2 2 1 0 0 0 0 0 0 0 0 0 1 2 3 2 1 0 0 0 0 0 0 0 0 0 0 0 0 0 0 0 0 0 0 0 0 0 0 0
Wind_Speed
13 13 12 12 12 12 12 12 11 9 7 2 3 4 6 6 5 5 5 4 4 4 2 2 2 2 3 4 4 3 3 4 4 4 4 4 3 3 3 3 3 2 3 3
13 14 13 13 13 12 12 12 12 9 6 2 5 4 5 4 4 4 4 3 4 3 2 1 1 1 2 2 3 3 3 4 3 3 4 4 4 4 4 3 2 2 2 2
11 13 13 13 11 10 10 9 9 7 2 3 4 4 3 3 3 3 3 3 4 3 2 1 1 1 1 1 2 3 3 3 3 3 4 4 5 4 3 2 2 2 2 1
10 11 13 8 5 5 5 5 5 3 0 2 3 4 5 3 3 3 3 4 3 2 2 2 2 1 1 1 2 2 2 2 2 2 3 3 3 3 2 2 2 1 1 1
8 10 11 7 3 4 4 4 3 3 2 4 4 3 5 5 5 5 5 4 3 3 2 1 1 1 1 0 1 2 2 2 2 2 2 2 3 3 2 2 1 2 2 1
8 10 10 4 2 3 4 4 2 2 2 3 2 2 2 5 6 6 5 4 3 2 2 2 2 1 1 0 1 2 2 2 2 2 2 2 3 3 2 2 2 2 1 1
11 11 7 3 3 3 4 1 4 3 2 1 2 2 3 5 6 5 4 3 3 2 2 2 1 1 1 0 1 1 1 1 2 1 2 3 3 2 2 2 2 1 1 1
8 10 5 4 3 2 3 3 4 5 3 4 5 4 4 5 4 4 3 2 2 2 2 2 2 1 1 1 1 1 1 1 1 2 2 2 2 2 2 2 2 2 1 1
3 2 2 3 3 3 2 3 4 4 4 3 3 3 4 3 3 3 2 2 2 1 2 2 2 1 1 1 1 1 2 1 1 1 2 2 2 2 2 1 2 2 2 1
4 3 2 0 2 2 3 3 3 2 2 3 2 2 2 2 2 2 2 1 1 1 2 1 2 1 1 1 1 1 1 1 1 1 2 2 1 1 1 1 1 1 1 1
6 3 3 1 2 2 3 2 1 1 2 2 2 2 2 2 1 2 2 1 1 1 2 1 1 1 1 1 1 1 0 1 0 1 1 2 1 1 1 2 1 1 1 1
4 2 3 3 1 1 1 1 1 0 1 2 1 2 2 2 1 1 1 1 1 2 2 2 1 2 2 2 1 1 0 1 1 1 1 2 2 2 4 3 4 3 2 1
3 3 4 4 2 1 1 2 1 1 1 2 1 1 2 2 1 1 1 1 2 2 2 2 2 2 1 1 1 1 1 1 1 1 1 1 2 2 2 1 2 2 1 1
2 3 3 3 1 0 2 2 1 1 1 1 1 1 2 1 1 1 2 1 2 2 2 2 1 2 1 1 1 1 1 1 1 1 1 1 1 1 2 2 1 0 1 1
3 2 3 3 1 1 1 1 1 1 2 1 1 1 2 1 1 1 1 1 1 2 1 1 1 1 2 2 1 1 1 1 1 1 1 1 1 1 1 2 2 1 1 1
3 2 2 2 2 2 2 2 2 2 2 1 1 1 0 1 1 1 0 1 1 2 2 2 1 1 1 1 1 1 1 1 2 2 2 2 2 2 2 2 2 1 1 1
3 2 2 2 2 3 2 1 1 1 1 1 1 1 0 0 0 1 1 1 2 2 2 2 1 0 0 0 1 2 1 1 3 3 2 1 1 1 1 1 1 1 1 1
2 2 2 2 2 3 2 1 1 1 0 1 1 1 1 1 2 2 2 1 2 1 1 1 1 1 1 1 1 2 2 1 1 1 1 1 1 1 1 1 1 1 1 2
1 1 2 2 2 2 2 2 1 0 1 1 1 1 1 1 2 2 2 2 2 2 2 1 1 2 2 0 1 2 2 1 1 1 1 1 2 2 2 1 1 1 1 1
0 1 2 2 2 2 1 1 1 1 1 1 1 2 2 2 2 2 2 2 2 1 1 2 2 3 2 1 2 3 2 2 2 1 1 2 2 2 2 1 1 0 0 0
0 1 2 2 2 2 1 1 2 2 2 2 2 2 2 2 1 1 2 2 1 0 1 3 2 2 2 1 3 3 3 3 3 2 2 2 2 2 1 1 1 0 0 1
2 2 2 2 2 2 1 1 2 2 2 2 3 3 3 2 3 3 3 2 1 1 2 2 2 1 2 3 3 4 3 3 2 2 2 1 2 2 1 1 1 1 0 1
2 3 3 2 3 3 2 2 2 2 2 3 3 3 3 3 3 2 2 1 1 1 2 1 1 2 2 4 4 4 3 2 1 1 1 1 1 1 1 1 1 0 0 1
2 2 2 3 3 3 3 3 2 2 3 4 3 3 3 3 2 2 1 2 2 3 2 2 2 3 4 4 3 3 3 2 2 2 2 2 1 1 0 0 0 0 0 1
3 3 3 3 3 3 3 3 4 4 4 4 3 3 3 2 2 1 1 2 3 3 2 3 5 5 4 3 3 3 2 1 1 1 1 0 1 1 0 0 0 0 0 1
3 3 3 3 3 3 3 3 3 3 3 3 2 2 2 2 2 2 2 2 3 3 3 2 3 4 3 3 2 2 1 1 1 1 1 1 0 0 1 0 1 1 1 1
3 3 3 4 4 4 3 3 3 2 2 2 2 1 1 1 2 2 2 2 2 3 3 2 3 3 3 2 2 1 1 1 1 1 1 1 1 1 1 1 1 1 1 1
Wind_Direction
268 271 266 262 262 263 263 262 261 259 254 207 113 119 113 118 127 114 111 110 107 110 97 87 117 155 170 182 179 174 184 180 184 188 193 200 198 207 212 221 223 211 226 232
269 267 262 263 264 261 259 263 265 261 262 141 118 107 109 113 116 108 103 111 110 107 96 79 74 197 178 177 167 170 195 188 178 191 196 197 200 205 208 215 222 226 234 237
268 270 268 260 258 255 253 261 273 276 292 105 122 123 115 112 97 89 93 78 91 87 70 55 11 6 156 175 167 176 195 196 187 201 201 198 204 199 198 196 201 232 245 215
268 268 259 264 274 268 266 270 280 275 218 116 92 92 92 86 95 98 88 79 74 86 71 31 18 37 38 163 172 175 186 202 202 203 192 189 185 178 173 167 196 223 241 227
263 262 260 257 258 281 276 280 310 315 5 57 56 86 85 74 81 82 78 69 62 62 81 47 41 52 50 60 163 170 182 197 200 198 185 174 159 157 156 159 190 219 223 218
258 265 268 290 2 334 279 241 358 12 36 69 49 293 77 64 70 78 76 73 63 55 73 70 44 62 87 62 209 218 206 197 193 167 160 170 159 161 161 166 192 215 207 207
248 259 270 344 347 289 252 333 4 360 51 84 61 44 83 79 77 80 75 75 66 50 67 73 54 57 99 25 338 301 224 172 151 147 157 160 155 156 153 176 188 201 212 206
252 256 265 20 9 9 40 27 22 19 35 66 80 85 85 78 72 74 80 75 70 63 64 61 57 52 59 16 337 359 36 121 132 137 168 152 141 152 158 182 190 202 215 224
274 272 5 16 39 51 46 29 23 16 49 84 105 109 99 91 82 72 60 50 46 68 83 80 66 46 24 8 349 36 57 70 115 131 129 121 139 161 168 191 216 223 209 219
274 244 244 340 40 35 36 33 24 29 71 86 95 105 111 115 111 109 97 78 69 75 79 74 68 40 19 32 14 40 71 82 115 135 129 131 157 166 164 197 226 239 216 218
256 266 282 265 31 16 9 14 25 58 93 110 118 132 125 131 132 129 125 119 120 133 119 95 79 64 30 30 56 36 69 129 133 181 158 137 103 44 71 59 54 4 349 346
271 316 301 309 343 321 313 296 291 96 104 107 135 154 143 144 137 143 155 172 169 163 146 136 125 85 50 22 21 30 358 296 234 200 170 159 137 96 52 78 98 90 66 71
322 337 312 297 277 255 273 296 280 216 152 144 142 152 139 138 161 166 182 186 185 177 152 138 130 112 95 43 345 7 339 310 291 285 223 190 161 150 129 75 61 59 67 106
332 330 317 315 302 250 225 242 225 176 125 117 129 150 138 145 165 181 195 198 202 185 166 149 126 106 94 93 64 355 296 253 265 265 260 241 193 186 167 163 167 225 298 201
331 308 292 305 313 289 267 219 197 175 139 121 134 146 153 170 186 217 252 239 209 174 143 112 102 80 59 54 38 303 292 276 279 288 280 260 218 205 201 181 177 161 151 162
301 296 302 282 257 257 252 243 223 198 168 155 155 151 158 168 164 191 246 228 201 153 109 85 61 73 82 67 328 274 254 252 255 257 260 249 231 217 212 192 179 163 189 161
293 287 285 280 281 288 275 249 243 231 188 171 168 169 182 222 242 255 242 220 174 142 119 112 94 29 156 185 272 271 251 206 229 258 268 278 278 272 244 204 177 159 189 152
283 279 278 276 285 293 295 285 236 230 197 175 176 192 209 246 254 254 252 216 155 155 145 123 115 252 249 230 283 289 280 248 239 271 272 270 283 289 276 231 207 210 210 174
320 304 297 294 298 297 285 277 271 184 191 202 206 219 226 235 240 240 249 220 204 213 203 162 203 252 256 206 274 269 274 278 277 273 276 256 250 262 254 229 217 220 215 166
271 258 274 274 280 292 295 273 249 241 236 242 253 255 253 250 237 223 224 231 234 247 184 172 213 248 250 204 267 264 252 255 259 245 248 262 262 265 263 241 201 140 151 156
285 297 299 287 279 279 279 279 253 229 235 236 236 247 261 270 258 249 238 237 224 236 218 184 212 250 261 258 241 259 253 239 238 240 236 244 248 258 264 260 232 184 168 143
10 1 330 318 316 318 321 298 272 241 226 233 237 235 241 250 246 236 230 239 203 193 226 217 215 230 261 259 244 250 252 244 232 231 235 246 254 257 253 238 233 218 184 145
2 357 348 335 322 313 303 287 270 259 252 244 249 248 244 249 250 245 229 229 213 204 239 245 217 198 227 247 251 250 247 245 241 239 241 247 255 288 301 272 250 205 155 137
334 332 333 322 304 288 280 279 277 268 264 259 250 242 238 241 242 235 214 186 187 191 224 191 200 209 231 244 248 251 248 241 237 235 231 226 229 221 216 243 269 12 144 137
312 308 302 293 278 269 265 256 247 243 249 251 245 235 233 229 243 248 200 190 176 190 213 196 205 213 227 247 247 254 257 253 252 259 264 272 235 214 195 207 203 92 76 108
295 284 276 267 264 258 252 248 248 247 254 259 251 238 230 211 215 204 200 198 196 214 231 209 199 208 230 244 250 258 281 233 205 231 230 203 177 123 81 84 73 70 76 85
270 269 261 256 246 237 243 247 250 261 272 282 280 268 254 235 237 233 226 213 202 217 232 224 210 210 220 230 239 233 247 257 238 217 186 157 143 141 136 143 118 98 91 91